www.pogodaiklimat.ru

Погода и климат >> Архив погоды >> Украина >> Хорлы


ПОГОДА в Хорлах

  • Прогноз погоды в Хорлах
  • Монитор погоды в Хорлах

АРХИВ ПОГОДЫ в Хорлах

Время (UTC), дата Ветер
(напр.,м/с)
 
Видим.   Явления Облачность Т
(С)
Тd
(С)
f
(%)
Тe
(С)
Тes
(С)
Комфортность P
(гПа)
Po
(гПа)
Тmin
(С)
Tmax
(С)
R
(мм)
R24
(мм)
S
(см)
00 16.07 С 2 10 км 10/8 600 м
[Sc Ac und Ci]
+19.2 +12.8 66 +21 +21 комфорт 1006.8 1005.9
03 16.07 С 2 10 км 9/3 600 м
[Sc Ac und Ci ing]
+18.5 +14.0 75 +20 +20 1006.9 1005.5
06 16.07 СЗ 3 10 км 10/0
[Cs]
+21.4 +13.4 60 +24 +30 комфорт 1007.6 1006.2 +18.5
09 16.07 СЗ 3 10 км 6/0
[Cc]
+25.6 +11.5 41 +27 +40 жарко 1007.5 1006.1
12 16.07 ЮЗ 6 10 км 1/1 600 м
[Cu med, cong]
+25.8 +16.0 55 +29 +34 душно 1007.3 1006.4
15 16.07 ЮЗ 6 10 км 1/1 600 м
[Cb cap]
+24.8 +16.5 60 +28 +30 жарко 1007.2 1005.8
18 16.07 З 4 10 км 8/1 600 м
[Cu med, cong Ac trans Cc]
+22.8 +14.5 59 +26 +26 жарко 1008.0 1006.6 +27.0
21 16.07 З 3 10 км 8/0
[Ci fib]
+21.4 +17.3 77 +25 +25 комфорт 1008.6 1007.2
00 17.07 СЗ 2 10 км 9/0
[Ci fib]
+19.4 +17.1 87 +22 +22 комфорт 1008.1 1007.2
03 17.07 С 2 10 км 9/0
[Ac lent Ci fib]
+18.6 +15.5 82 +20 +20 1008.1 1006.7
06 17.07 ЮВ 1 10 км 3/0
[Cc]
+23.7 +15.6 60 +27 +36 жарко 1008.5 1007.1 +18.4
12 17.07 ЮЗ 4 10 км 6/5 600 м
[Cb calv Cc]
+25.9 +18.7 65 +31 +35 очень
душно
1007.8 1006.9
15 17.07 З 5 10 км 3/3 600 м
[Cb calv]
+25.2 +18.2 65 +30 +31 душно 1007.0 1005.6
18 17.07 З 3 10 км 1/0
[Ci fib]
+24.1 +13.7 52 +26 +26 жарко 1007.5 1006.1 +27.1
21 17.07 З 3 10 км ясно +22.0 +14.7 63 +25 +25 комфорт 1008.2 1006.8
00 18.07 СЗ 2 10 км ясно +20.2 +16.9 81 +24 +24 комфорт 1008.0 1007.1
03 18.07 С 2 10 км ясно +18.6 +16.1 85 +20 +20 1008.3 1006.9
06 18.07 С 4 10 км 1/0
[Ci ing]
+22.9 +14.2 58 +26 +32 жарко 1009.3 1007.9 +18.6
09 18.07 С 4 10 км 3/0
[Ci ing]
+26.7 +11.0 37 +28 +39 жарко 1010.0 1008.6
12 18.07 З 3 10 км 3/3 1000 м
[Cu hum]
+28.4 +10.3 32 +29 +37 жарко 1010.4 1009.5
15 18.07 З 4 10 км 1/1 1000 м
[Cu hum]
+26.1 +17.3 58 +30 +32 душно 1010.8 1009.4
18 18.07 З 3 10 км 1/0
[Ci fib]
+23.9 +17.8 69 +28 +28 душно 1012.0 1010.6 +29.3
21 18.07 СЗ 4 10 км ясно +22.0 +14.5 62 +25 +25 комфорт 1013.4 1012.0
00 19.07 С 2 10 км ясно +18.0 +12.2 69 +19 +19 1014.5 1013.6
03 19.07 С 3 10 км ясно +16.7 +12.7 77 +16 +17 1015.7 1014.3
06 19.07 С 3 10 км ясно +23.4 +11.6 47 +26 +33 жарко 1016.4 1015.0 +16.3
09 19.07 ЮЗ 4 10 км 1/1 600 м
[Cu hum]
+25.6 +12.6 44 +27 +38 жарко 1016.8 1015.4
12 19.07 ЮЗ 6 10 км 3/3 600 м
[Sc diur, vesp]
+26.1 +14.5 49 +29 +33 жарко 1016.6 1015.7
15 19.07 З 6 10 км 3/1 600 м
[Sc diur, vesp Ci fib]
+25.8 +12.2 43 +27 +28 жарко 1016.3 1014.9
18 19.07 З 3 10 км 1/0
[Ci fib]
+23.8 +14.5 56 +26 +26 жарко 1017.0 1015.6 +26.9
21 19.07 СЗ 2 10 км ясно +21.3 +14.2 64 +24 +24 комфорт 1017.9 1016.5
00 20.07 С 4 10 км ясно +20.1 +13.6 66 +22 +22 комфорт 1018.3 1017.4
03 20.07 С 2 10 км 3/0
[Ac lent Ci fib]
+18.9 +13.2 69 +20 +21 1018.3 1016.9
06 20.07 В 2 10 км ясно +24.9 +12.3 45 +27 +35 жарко 1019.5 1018.1 +18.4
09 20.07 Ю 2 10 км 4/4 600 м
[Cu hum]
+26.6 +15.4 50 +29 +40 жарко 1019.7 1018.3
12 20.07 ЮЗ 3 10 км 4/4 600 м
[Sc diur, vesp]
+29.2 +10.5 31 +29 +36 жарко 1019.1 1018.2
18 20.07 З 2 10 км 3/0
[Ci sp]
+25.1 +16.6 59 +29 +29 душно 1018.3 1016.9 +30.0
00 21.07 С 3 10 км ясно +21.0 +14.1 65 +24 +24 комфорт 1018.5 1017.6
06 21.07 СВ 1 10 км ясно +25.7 +13.6 47 +28 +37 жарко 1018.6 1017.2 +20.1
12 21.07 ЮЗ 5 10 км 1/1 600 м
[Cu med, cong]
+28.2 +18.0 54 +33 +39 очень
душно
1017.5 1016.6
18 21.07 З 3 10 км 3/0
[Ac trans Ci fib]
+26.0 +19.3 67 +31 +31 очень
душно
1016.7 1015.3 +29.8
00 22.07 С 3 10 км 1/0
[Ci fib]
+21.5 +14.9 66 +25 +25 комфорт 1018.1 1017.2
06 22.07 В 2 10 км ясно +26.3 +16.4 54 +30 +38 душно 1017.5 1016.1 +20.0
12 22.07 ЮЗ 5 10 км 1/1 600 м
[Cu med, cong]
+28.2 +20.8 64 +35 +42 очень
душно
1016.5 1015.6
18 22.07 З 3 10 км 3/3 600 м
[Sc]
+25.5 +21.0 76 +32 +32 очень
душно
1015.0 1013.6 +29.9

 

Местоположение метеостанции Хорлы (Херсонская область, Украина): широта 46.05 долгота 33.45 высота над уровнем моря 12 м.

В архиве по умолчанию представлена погода в Хорлах за последнюю неделю. Архивные данные за месяц целиком и за предыдущие месяцы, начиная с января 2011 года, Вы можете получить, выбрав интересующий диапазон дат из раскрывающегося списка и нажав кнопку "Ввод!".


*Определитесь, кто Вы:
робот инопланетянин человек

Внимание! Время в таблицах - всемирное. Для получения местного времени необходимо прибавить поправку, которая равна 2 ч.

Смотрите также архив погоды в соседних городах и на ближайших метеорологических станциях:

Погода в Раздольном (Крым, Россия) (30 км)
Погода в Ишуни (Крым, Россия) (32 км)
Погода в Аскании-Нове (Херсонская область, Украина) (55 км)
Погода в Клепинино (Крым, Россия) (81 км)
Погода в Новой Каховке (Херсонская область, Украина) (81 км)
Погода в Джанкое (Крым, Россия) (82 км)
Погода в Черноморском (Крым, Россия) (83 км)
Погода в Бехтерах (Херсонская область, Украина) (91 км)
Погода в Херсоне (Херсонская область, Украина) (93 км)
Погода в Евпатории (Крым, Россия) (97 км)

Пояснения к столбцам:

Ветер - указаны скорость ветра в м/с - средняя за 10 мин, порывы в срок и между сроками (в фигурных скобках) и направление, откуда дует ветер: С - северный, СВ - северо-восточный, В - восточный, ЮВ - юго-восточный, Ю - южный, ЮЗ - юго-западный, З - западный, СЗ - северо-западный.
Видимость - горизонтальная дальность видимости в метрах или километрах. При видимости от 1 до 10 км при отсутствии осадков обычно наблюдается дымка, при ухудшении видимости до 1 км и менее - туман. В сухую погоду видимость может ухудшаться дымом, пылью или мглою.
Явления - указаны атмосферные явления, наблюдавшиеся в срок или в последний час перед сроком; фигурными скобками обозначены явления, наблюдавшиеся между сроками (за 1-3 часа до срока); квадратными скобками обозначены град или гололедные отложения с указанием их диаметра в мм.
Облачность - указаны через наклонную черту общая и нижняя облачность в баллах и высота нижней границы облаков в метрах; квадратными скобками обозначены формы облаков: Ci - перистые, Cs - перисто-слоистые, Cc - перисто-кучевые, Ac - высококучевые, As - высокослоистые, Sc - слоисто-кучевые, Ns - слоисто-дождевые, Cu - кучевые, Cb - кучево-дождевые. Подробнее классификацию облаков см. в Атласе облаков (PDF).
T - Температура воздуха - температура, измеренная на высоте 2 м над землей.
Td - Температура точки росы - температура, при понижении до которой содержащийся в воздухе водяной пар достигнет насыщения.
f - Относительная влажность воздуха - влажноcть воздуха, измеренная на высоте 2 м над землей.
Te - Эффективная температура - температура, которую ощущает одетый по сезону человек в тени. Характеристика душности погоды. При расчете учитывается влияние влажности воздуха и скорости ветра на теплоощущения человека.
Tes - Эффективная температура на солнце - температура, которую ощущает человек, с поправкой на солнечный нагрев. Характеристика знойности погоды. Зависит от высоты солнца над горизонтом, облачности и скорости ветра. Ночью, в пасмурную погоду, а также при ветре 12 м/с и более поправка равна нулю.
P - Атмосферное давление - приведенное к уровню моря атмосферное давление.
Po - Атмосферное давление - измеренное на уровне метеостанции атмосферное давление.
Tmin - Минимальная температура - минимум температуры воздуха на высоте 2 м над землей.
Tmax - Максимальная температура - максимум температуры воздуха на высоте 2 м над землей.
R - Количество осадков - Количество выпавших осадков за период времени, мм. При наведении курсора мыши на число - период времени, за который выпало указанное количество осадков.
R24 - Количество осадков - Количество выпавших осадков за 24 часа, мм.
S - Снежный покров - Высота снежного покрова, см. При наведении курсора мыши на число - состояние снежного покрова и степень покрытия местности в баллах.